GEESAT-6 10

Last updated on Sat Oct 25 2025 00:02:05 GMT+0000 (Coordinated Universal Time)

1 65722U 25214L 25297.66280586 .00003551 00000+0 42143-3 0 9992 2 65722 49.9889 321.1163 0010814 44.3838 315.7967 14.86623409 4524

Satellite not in orbit

GEESAT-6 10